Location: Goulburn
(34.7479°S, 149.7277°E)
Time: 20:46:49
(UTC+11:00)

Envisat - Visible Passes

Search period start: 21 October 2019 00:00
Search period end: 31 October 2019 00:00
Orbit: 764 x 766 km, 98.1° (Epoch: 21 October)

Date Brightness Start Highest point End Pass type
(mag) Time Alt. Az. Time Alt. Az. Time Alt. Az.
21 Oct 5.3 20:50:40 10° SSW 20:54:53 26° WSW 20:59:06 10° NW visible
22 Oct 3.6 20:13:17 10° S 20:18:22 61° WSW 20:23:23 10° NNW visible
23 Oct 6.1 21:17:16 10° SSW 21:20:07 15° WSW 21:22:56 10° W visible
24 Oct 4.9 20:39:08 10° S 20:43:43 33° WSW 20:48:15 10° NW visible
25 Oct 3.2 20:01:58 10° S 20:07:08 79° WSW 20:12:13 10° NNW visible
26 Oct 5.8 21:05:25 10° SSW 21:08:58 19° WSW 21:12:30 10° WNW visible
27 Oct 4.4 20:27:41 10° S 20:32:31 43° WSW 20:37:19 10° NW visible
28 Oct 3.0 19:50:42 10° SSE 19:55:53 81° ENE 20:00:59 10° N visible
28 Oct 6.4 21:33:13 10° SW 21:34:08 10° WSW 21:35:03 10° WSW visible
29 Oct 5.5 20:53:45 10° SSW 20:57:49 24° WSW 21:01:51 10° WNW visible
30 Oct 3.9 20:16:17 10° S 20:21:19 55° WSW 20:26:17 10° NNW visible
